[[{"header":{"parameterUnit":"m.s-1","parameterCategory":2,"la1":30.2992,"la2":30.254,"lo1":-89.0895,"lo2":-89.0443,"dy":0.0025,"dx":0.0025,"nx":19,"ny":19,"refTime":"2026-03-12T21:00:00:Z","depth":"0","parameterNumber":2,"parameterNumberName":"U-component_of_CURRENTS"},"data":[0,0,0,-0.2472,-0.2474,-0.2555,-0.2555,-0.263,-0.263,0,0,0,0,0,0,0,0,0,0,0,-0.243,-0.243,-0.2472,-0.2474,-0.2555,-0.2555,-0.2629,-0.263,0,0,0,0,0,0,0,0,0,0,0,-0.2429,-0.243,-0.243,-0.2475,-0.2555,-0.2555,-0.2629,-0.2574,0,0,0,0,0,0,0,0,0,0,-0.2498,-0.2455,-0.243,-0.243,-0.2475,-0.2554,-0.2555,-0.2571,-0.2577,-0.2588,0,-0.2598,0,-0.2626,-0.2635,-0.2636,0,0,0,-0.2466,-0.245,-0.2487,-0.2431,-0.2476,-0.2554,-0.2516,-0.2575,-0.2581,-0.2596,-0.2599,-0.2603,-0.2628,-0.2636,-0.2636,-0.2742,-0.2742,0,0,-0.2461,-0.243,-0.2483,-0.2491,-0.2494,-0.2513,-0.2519,-0.2579,-0.2574,-0.26,-0.2605,-0.2629,-0.2637,-0.2637,-0.2741,-0.2742,0,0,0,-0.2455,-0.2427,-0.2463,-0.2487,-0.251,-0.2516,-0.2522,-0.2571,-0.2588,-0.2606,-0.263,-0.2637,-0.2638,-0.274,-0.2741,-0.276,0,0,0,-0.2451,-0.2424,-0.2461,-0.2441,-0.2509,-0.2544,-0.2512,-0.2583,-0.2591,-0.2629,-0.2637,-0.2639,-0.274,-0.2741,-0.2758,-0.2772,0,0,0,-0.2427,-0.2422,-0.2433,-0.244,-0.2482,-0.2544,-0.2563,-0.2585,-0.2606,-0.2636,-0.2639,-0.2739,-0.2741,-0.2756,-0.2769,-0.2827,0,0,0,-0.2389,-0.2407,-0.2432,-0.2468,-0.2482,-0.2565,-0.2563,-0.2613,-0.264,-0.2637,-0.274,-0.2741,-0.2756,-0.2768,-0.2825,-0.2828,-0.284,0,0,-0.2396,-0.2406,-0.2434,-0.246,-0.2537,-0.2554,-0.2632,-0.2657,-0.2665,-0.2715,-0.2718,-0.2759,-0.2769,-0.2827,-0.2907,-0.2916,0,0,0,-0.2428,-0.244,-0.2471,-0.252,-0.2586,-0.2645,-0.2679,-0.2699,-0.2741,-0.269,-0.2781,-0.2788,-0.2823,-0.2821,-0.2829,-0.285,-0.2747,-0.2747,-0.2747,-0.2369,-0.2435,-0.2481,-0.2563,-0.2622,-0.2708,-0.2756,-0.2791,-0.2783,-0.2807,-0.2819,-0.2899,-0.2897,-0.2902,-0.2924,-0.2836,-0.2836,-0.2836,-0.2836,-0.237,-0.2389,-0.2484,-0.2548,-0.2638,-0.2704,-0.2819,-0.2834,-0.2908,-0.2872,-0.2905,-0.2861,-0.2911,-0.2932,-0.2837,-0.2837,-0.2837,-0.2837,-0.2837,-0.2307,-0.2324,-0.238,-0.2477,-0.2573,-0.2687,-0.2797,-0.2873,-0.2924,-0.2964,-0.2977,-0.2976,-0.2982,-0.298,-0.298,-0.2981,-0.2981,-0.2981,-0.2981,-0.2197,-0.2264,-0.2286,-0.2404,-0.2457,-0.258,-0.2777,-0.2867,-0.2984,-0.3014,-0.3014,-0.302,-0.2943,-0.2923,-0.2986,-0.2985,-0.2985,-0.2984,-0.2984,-0.2094,-0.2124,-0.2157,-0.2202,-0.2345,-0.244,-0.2671,-0.2903,-0.3023,-0.3079,-0.3113,-0.3055,-0.3056,-0.305,-0.3034,-0.3122,-0.3122,-0.3122,-0.3122,-0.1991,-0.2023,-0.2031,-0.2078,-0.2185,-0.2362,-0.2557,-0.2836,-0.3077,-0.3151,-0.3182,-0.3139,-0.3133,-0.3136,-0.3128,-0.3112,-0.3219,-0.3219,-0.3219,-0.1907,-0.1934,-0.1898,-0.1975,-0.2092,-0.2265,-0.2437,-0.2809,-0.315,-0.3225,-0.3216,-0.3212,-0.3148,-0.3136,-0.3136,-0.3123,-0.3095,0,0]},{"header":{"parameterUnit":"m.s-1","parameterCategory":2,"la1":30.2992,"la2":30.254,"lo1":-89.0895,"lo2":-89.0443,"dy":0.0025,"dx":0.0025,"nx":19,"ny":19,"refTime":"2026-03-12T21:00:00:Z","depth":"0","parameterNumber":3,"parameterNumberName":"V-component_of_CURRENTS"},"data":[0,0,0,-0.0305,-0.0303,-0.019,-0.019,-0.0048,-0.0047,0,0,0,0,0,0,0,0,0,0,0,-0.0347,-0.0347,-0.0305,-0.0303,-0.0191,-0.019,-0.0048,-0.0047,0,0,0,0,0,0,0,0,0,0,0,-0.0347,-0.0347,-0.0346,-0.0303,-0.0191,-0.019,-0.0048,-0.0128,0,0,0,0,0,0,0,0,0,0,-0.0236,-0.0287,-0.0347,-0.0346,-0.0302,-0.0191,-0.019,-0.0132,-0.0123,-0.0105,0,-0.01,0,-0.0076,-0.0039,-0.0038,0,0,0,-0.0285,-0.0294,-0.026,-0.0346,-0.0302,-0.0191,-0.0236,-0.0127,-0.0117,-0.0094,-0.0098,-0.0092,-0.0074,-0.0038,-0.0037,0.0015,0.0014,0,0,-0.0292,-0.0324,-0.0267,-0.0255,-0.0288,-0.024,-0.0233,-0.0121,-0.012,-0.0097,-0.0089,-0.0072,-0.0037,-0.0036,0.0015,0.0015,0,0,0,-0.0322,-0.0329,-0.0297,-0.0261,-0.0244,-0.0237,-0.0229,-0.0125,-0.0114,-0.0087,-0.007,-0.0036,-0.0035,0.0015,0.0015,-0.0089,0,0,0,-0.0324,-0.0347,-0.0301,-0.0318,-0.0247,-0.0184,-0.0236,-0.0121,-0.0108,-0.0071,-0.0036,-0.0034,0.0016,0.0015,-0.0086,-0.0148,0,0,0,-0.0349,-0.035,-0.0341,-0.0321,-0.0279,-0.0186,-0.0167,-0.0117,-0.0098,-0.0038,-0.0034,0.0016,0.0015,-0.0083,-0.0141,-0.015,0,0,0,-0.0379,-0.0401,-0.0342,-0.0363,-0.028,-0.0249,-0.0167,-0.0131,-0.0089,-0.0036,0.0016,0.0015,-0.0082,-0.0137,-0.0147,-0.0185,-0.0203,0,0,-0.0429,-0.0408,-0.0421,-0.0367,-0.0376,-0.0262,-0.0256,-0.0164,-0.0091,-0.0017,-0.0015,-0.0087,-0.0141,-0.0149,-0.0227,-0.0244,0,0,0,-0.0452,-0.0467,-0.0458,-0.0447,-0.0394,-0.0352,-0.0247,-0.0195,-0.0123,-0.007,-0.0072,-0.0103,-0.0105,-0.012,-0.0134,0.0171,0.0012,0.0012,0.0012,-0.0558,-0.0533,-0.0568,-0.0533,-0.0505,-0.0406,-0.0361,-0.0267,-0.0184,-0.017,-0.0177,-0.0243,-0.0261,-0.0272,0.0043,-0.0154,-0.0154,-0.0155,-0.0155,-0.0661,-0.0691,-0.0657,-0.0679,-0.0617,-0.059,-0.0469,-0.0398,-0.032,-0.0254,-0.0249,-0.0217,-0.0293,0.0048,-0.0161,-0.016,-0.0159,-0.0159,-0.0158,-0.0741,-0.0757,-0.0758,-0.079,-0.0788,-0.0705,-0.0703,-0.0573,-0.0434,-0.0426,-0.0388,-0.0386,-0.0093,-0.0407,-0.0408,-0.0408,-0.0408,-0.0409,-0.0409,-0.0824,-0.0831,-0.0892,-0.091,-0.0937,-0.0937,-0.0832,-0.0769,-0.0622,-0.0512,-0.0511,-0.0078,-0.0319,-0.0316,-0.0414,-0.0413,-0.0412,-0.0412,-0.0412,-0.0933,-0.0924,-0.1033,-0.1078,-0.1153,-0.1236,-0.1112,-0.0978,-0.0849,-0.0778,-0.0212,-0.0531,-0.0493,-0.0481,-0.0481,-0.0616,-0.0616,-0.0616,-0.0616,-0.1001,-0.1008,-0.1165,-0.1276,-0.137,-0.1383,-0.1455,-0.1234,-0.0645,-0.0301,-0.012,-0.0028,-0.0033,0.004,0.004,0.0055,0.006,0.0062,0.0064,-0.1076,-0.112,-0.1253,-0.136,-0.1478,-0.1563,-0.1671,-0.1431,-0.0439,0.0129,0.0317,0.0288,0.0466,0.0432,0.058,0.0556,0.0592,0,0]}],[{"header":{"parameterUnit":"m.s-1","parameterCategory":2,"la1":30.2992,"la2":30.254,"lo1":-89.0895,"lo2":-89.0443,"dy":0.0025,"dx":0.0025,"nx":19,"ny":19,"refTime":"2026-03-12T21:00:00:Z","depth":"2","parameterNumber":2,"parameterNumberName":"U-component_of_CURRENTS"},"data":[0,0,0,-0.2445,-0.2447,-0.2529,-0.2529,-0.2604,-0.2604,0,0,0,0,0,0,0,0,0,0,0,-0.2402,-0.2403,-0.2445,-0.2447,-0.2528,-0.2529,-0.2604,-0.2604,0,0,0,0,0,0,0,0,0,0,0,-0.2402,-0.2403,-0.2403,-0.2448,-0.2528,-0.2529,-0.2603,-0.2547,0,0,0,0,0,0,0,0,0,0,-0.2471,-0.2428,-0.2403,-0.2403,-0.2448,-0.2528,-0.2529,-0.2545,-0.2551,-0.2561,0,-0.2571,0,-0.26,-0.261,-0.261,0,0,0,-0.2439,-0.2423,-0.246,-0.2403,-0.2449,-0.2528,-0.2489,-0.2548,-0.2555,-0.2569,-0.2573,-0.2576,-0.2601,-0.261,-0.261,-0.2714,-0.2715,0,0,-0.2435,-0.2404,-0.2456,-0.2464,-0.2467,-0.2487,-0.2492,-0.2553,-0.2548,-0.2573,-0.2579,-0.2602,-0.2611,-0.2611,-0.2714,-0.2715,0,0,0,-0.2427,-0.24,-0.2436,-0.246,-0.2484,-0.249,-0.2495,-0.2545,-0.2562,-0.258,-0.2603,-0.2611,-0.2612,-0.2713,-0.2714,-0.2733,0,0,0,-0.2424,-0.2398,-0.2434,-0.2415,-0.2482,-0.2518,-0.2486,-0.2557,-0.2565,-0.2603,-0.2611,-0.2613,-0.2713,-0.2714,-0.2731,-0.2744,0,0,0,-0.2399,-0.2395,-0.2407,-0.2413,-0.2456,-0.2518,-0.2537,-0.2559,-0.258,-0.261,-0.2613,-0.2712,-0.2713,-0.2729,-0.2742,-0.2798,0,0,0,-0.2362,-0.238,-0.2405,-0.2441,-0.2455,-0.2538,-0.2537,-0.2587,-0.2614,-0.2611,-0.2713,-0.2714,-0.2729,-0.274,-0.2796,-0.2773,-0.2782,0,0,-0.2369,-0.2379,-0.2407,-0.2433,-0.2509,-0.2526,-0.2604,-0.263,-0.2638,-0.2688,-0.269,-0.2731,-0.2742,-0.2798,-0.2851,-0.2857,0,0,0,-0.2401,-0.2413,-0.2443,-0.2491,-0.2557,-0.2616,-0.265,-0.2671,-0.2714,-0.2663,-0.2754,-0.276,-0.2795,-0.2777,-0.2782,-0.272,-0.272,-0.272,-0.272,-0.2343,-0.2407,-0.2453,-0.2534,-0.2592,-0.2679,-0.2726,-0.2762,-0.2755,-0.2779,-0.2792,-0.2869,-0.285,-0.2854,-0.2807,-0.2808,-0.2808,-0.2808,-0.2808,-0.2343,-0.2362,-0.2456,-0.2518,-0.2608,-0.2673,-0.2788,-0.2804,-0.2878,-0.2843,-0.2876,-0.2817,-0.2861,-0.281,-0.2809,-0.2809,-0.2809,-0.2809,-0.2809,-0.2281,-0.2297,-0.2354,-0.2449,-0.2545,-0.2657,-0.2766,-0.2842,-0.2893,-0.2933,-0.2929,-0.2928,-0.2883,-0.2949,-0.295,-0.295,-0.295,-0.2951,-0.2951,-0.2172,-0.2238,-0.2261,-0.2377,-0.2429,-0.255,-0.2746,-0.2835,-0.294,-0.2963,-0.2963,-0.2918,-0.2913,-0.2893,-0.2956,-0.2955,-0.2954,-0.2954,-0.2953,-0.2071,-0.2101,-0.2133,-0.2177,-0.2317,-0.2385,-0.2632,-0.2849,-0.2971,-0.3017,-0.2993,-0.2991,-0.2989,-0.2984,-0.2967,-0.3045,-0.3045,-0.3045,-0.3045,-0.1969,-0.2,-0.2008,-0.2053,-0.2157,-0.2299,-0.2413,-0.2551,-0.2758,-0.2764,-0.2775,-0.2699,-0.2704,-0.2682,-0.2683,-0.2657,-0.2655,-0.2653,-0.2652,-0.1886,-0.1913,-0.1877,-0.1951,-0.2064,-0.2176,-0.2183,-0.216,-0.2331,-0.2625,-0.2586,-0.3042,-0.2961,-0.2957,-0.2945,-0.2939,-0.2907,0,0]},{"header":{"parameterUnit":"m.s-1","parameterCategory":2,"la1":30.2992,"la2":30.254,"lo1":-89.0895,"lo2":-89.0443,"dy":0.0025,"dx":0.0025,"nx":19,"ny":19,"refTime":"2026-03-12T21:00:00:Z","depth":"2","parameterNumber":3,"parameterNumberName":"V-component_of_CURRENTS"},"data":[0,0,0,-0.0247,-0.0245,-0.0134,-0.0134,0.0009,0.001,0,0,0,0,0,0,0,0,0,0,0,-0.0288,-0.0288,-0.0247,-0.0245,-0.0134,-0.0134,0.0008,0.001,0,0,0,0,0,0,0,0,0,0,0,-0.0288,-0.0288,-0.0287,-0.0244,-0.0134,-0.0133,0.0008,-0.0071,0,0,0,0,0,0,0,0,0,0,-0.0177,-0.0228,-0.0288,-0.0287,-0.0244,-0.0135,-0.0133,-0.0075,-0.0066,-0.0047,0,-0.0043,0,-0.002,0.0017,0.0018,0,0,0,-0.0227,-0.0235,-0.0202,-0.0287,-0.0243,-0.0135,-0.0179,-0.007,-0.006,-0.0036,-0.004,-0.0035,-0.0017,0.0018,0.0019,0.0072,0.0072,0,0,-0.0233,-0.0266,-0.0209,-0.0196,-0.0231,-0.0183,-0.0176,-0.0064,-0.0063,-0.004,-0.0031,-0.0015,0.0019,0.002,0.0072,0.0072,0,0,0,-0.0263,-0.027,-0.0239,-0.0203,-0.0186,-0.018,-0.0172,-0.0068,-0.0057,-0.003,-0.0013,0.002,0.0021,0.0072,0.0072,-0.0032,0,0,0,-0.0265,-0.0288,-0.0242,-0.026,-0.0189,-0.0127,-0.0179,-0.0065,-0.0051,-0.0014,0.002,0.0022,0.0073,0.0072,-0.0029,-0.009,0,0,0,-0.029,-0.0291,-0.0282,-0.0262,-0.0221,-0.0129,-0.011,-0.0061,-0.0042,0.0018,0.0023,0.0073,0.0072,-0.0026,-0.0084,-0.0093,0,0,0,-0.0319,-0.0341,-0.0283,-0.0304,-0.0223,-0.0191,-0.0111,-0.0074,-0.0033,0.002,0.0073,0.0072,-0.0025,-0.008,-0.0089,-0.0123,-0.0141,0,0,-0.0369,-0.0348,-0.0361,-0.0307,-0.0316,-0.0204,-0.0198,-0.0107,-0.0034,0.004,0.0042,-0.003,-0.0083,-0.0092,-0.0165,-0.0182,0,0,0,-0.0391,-0.0406,-0.0398,-0.0387,-0.0334,-0.0292,-0.0189,-0.0137,-0.0066,-0.0014,-0.0015,-0.0045,-0.0047,-0.0061,-0.0074,0.0069,0.0069,0.0069,0.0069,-0.0497,-0.0472,-0.0506,-0.0471,-0.0443,-0.0345,-0.0301,-0.0208,-0.0126,-0.0112,-0.0119,-0.0185,-0.0201,-0.0211,-0.0096,-0.0096,-0.0097,-0.0097,-0.0097,-0.0599,-0.0628,-0.0594,-0.0615,-0.0555,-0.0527,-0.0408,-0.0338,-0.0261,-0.0195,-0.0191,-0.0157,-0.0232,-0.0105,-0.0104,-0.0103,-0.0102,-0.0101,-0.0101,-0.0678,-0.0694,-0.0695,-0.0727,-0.0725,-0.0643,-0.064,-0.0512,-0.0374,-0.0367,-0.0327,-0.0325,-0.0246,-0.0349,-0.035,-0.035,-0.035,-0.0351,-0.0351,-0.0761,-0.0768,-0.0829,-0.0846,-0.0873,-0.0873,-0.077,-0.0707,-0.056,-0.045,-0.0449,-0.0269,-0.0261,-0.0259,-0.0356,-0.0355,-0.0354,-0.0354,-0.0353,-0.0869,-0.0861,-0.0969,-0.1015,-0.1088,-0.1149,-0.1043,-0.0909,-0.0785,-0.0714,-0.0472,-0.0467,-0.043,-0.0418,-0.0418,-0.055,-0.055,-0.055,-0.0551,-0.0937,-0.0944,-0.1101,-0.1211,-0.1303,-0.1287,-0.1315,-0.107,-0.0765,-0.0578,-0.0576,-0.0534,-0.0526,-0.049,-0.0476,-0.0474,-0.0622,-0.0622,-0.0622,-0.1011,-0.1055,-0.1188,-0.1294,-0.1409,-0.1443,-0.1456,-0.115,-0.0694,-0.0621,-0.055,-0.0563,-0.0494,-0.0485,-0.0417,-0.04,-0.0393,0,0]}],[{"header":{"parameterUnit":"m.s-1","parameterCategory":2,"la1":30.2992,"la2":30.254,"lo1":-89.0895,"lo2":-89.0443,"dy":0.0025,"dx":0.0025,"nx":19,"ny":19,"refTime":"2026-03-12T21:00:00:Z","depth":"4","parameterNumber":2,"parameterNumberName":"U-component_of_CURRENTS"},"data":[0,0,0,-0.1622,-0.1626,-0.181,-0.1811,-0.1974,-0.1975,0,0,0,0,0,0,0,0,0,0,0,-0.1561,-0.1562,-0.1622,-0.1626,-0.181,-0.1811,-0.1973,-0.1975,0,0,0,0,0,0,0,0,0,0,0,-0.156,-0.1562,-0.1564,-0.1627,-0.181,-0.1811,-0.1973,-0.1854,0,0,0,0,0,0,0,0,0,0,-0.1685,-0.1636,-0.1562,-0.1564,-0.1628,-0.181,-0.1811,-0.1849,-0.1862,-0.1867,0,-0.19,0,-0.1936,-0.1983,-0.1984,0,0,0,-0.1634,-0.1626,-0.1675,-0.1564,-0.163,-0.181,-0.1729,-0.1857,-0.187,-0.1883,-0.1902,-0.1909,-0.1939,-0.1984,-0.1985,-0.2135,-0.2136,0,0,-0.1624,-0.1595,-0.1665,-0.1683,-0.1682,-0.1723,-0.1735,-0.1866,-0.188,-0.1903,-0.1913,-0.1941,-0.1985,-0.1986,-0.2135,-0.2135,0,0,0,-0.1589,-0.1588,-0.1636,-0.1676,-0.1713,-0.1728,-0.1742,-0.1875,-0.1891,-0.1915,-0.1943,-0.1986,-0.1987,-0.2134,-0.2135,-0.216,0,0,0,-0.1584,-0.1568,-0.1631,-0.1616,-0.1711,-0.1806,-0.1748,-0.1882,-0.1898,-0.1943,-0.1986,-0.1989,-0.2133,-0.2134,-0.2158,-0.2164,0,0,0,-0.1552,-0.1564,-0.1587,-0.1614,-0.169,-0.1805,-0.183,-0.1887,-0.1914,-0.1984,-0.1989,-0.2132,-0.2134,-0.2156,-0.2161,-0.2207,0,0,0,-0.1514,-0.1549,-0.1586,-0.1643,-0.1688,-0.1807,-0.183,-0.1928,-0.1991,-0.1986,-0.2133,-0.2135,-0.2155,-0.2159,-0.2205,-0.1938,0,0,0,-0.1532,-0.1551,-0.1585,-0.1623,-0.1722,-0.1782,-0.1897,-0.1985,-0.2015,-0.2084,-0.2089,-0.2158,-0.2161,-0.2207,-0.2038,0,0,0,0,-0.1574,-0.1597,-0.1635,-0.1706,-0.1795,-0.1894,-0.1983,-0.2026,-0.212,-0.2059,-0.2185,-0.2186,-0.2214,-0.2053,-0.2143,-0.2143,-0.2142,-0.2142,-0.2142,-0.1539,-0.1603,-0.1669,-0.1762,-0.1845,-0.1982,-0.2061,-0.2138,-0.2157,-0.2205,-0.2227,-0.2305,-0.2137,-0.2252,-0.2252,-0.2252,-0.2252,-0.2252,-0.2252,-0.1546,-0.1571,-0.1685,-0.1771,-0.1891,-0.1997,-0.2144,-0.2188,-0.2294,-0.2282,-0.2308,-0.2114,-0.2255,-0.2255,-0.2254,-0.2254,-0.2254,-0.2253,-0.2253,-0.1485,-0.1506,-0.1591,-0.1722,-0.1861,-0.2008,-0.2119,-0.2235,-0.2314,-0.2358,-0.2204,-0.2334,-0.231,-0.2381,-0.2382,-0.2382,-0.2382,-0.2382,-0.2382,-0.1369,-0.1458,-0.1516,-0.1671,-0.1755,-0.1895,-0.2114,-0.2184,-0.2304,-0.2211,-0.2376,-0.2349,-0.2344,-0.2319,-0.2386,-0.2386,-0.2385,-0.2385,-0.2385,-0.126,-0.132,-0.1386,-0.1466,-0.1647,-0.1732,-0.1976,-0.2069,-0.2133,-0.2109,-0.2136,-0.2147,-0.2116,-0.2118,-0.2083,-0.2083,-0.208,-0.2076,0,-0.1167,-0.1206,-0.1276,-0.1352,-0.1441,-0.1624,-0.1667,-0.1799,-0.1911,-0.184,-0.2117,-0.2142,-0.215,-0.211,-0.2107,-0.2062,0,0,0,-0.1093,-0.1129,-0.1136,-0.124,-0.1332,-0.1466,-0.1665,-0.165,-0.1894,-0.1887,-0.1996,-0.2017,-0.2245,-0.2398,-0.2378,-0.2373,-0.2332,0,0]},{"header":{"parameterUnit":"m.s-1","parameterCategory":2,"la1":30.2992,"la2":30.254,"lo1":-89.0895,"lo2":-89.0443,"dy":0.0025,"dx":0.0025,"nx":19,"ny":19,"refTime":"2026-03-12T21:00:00:Z","depth":"4","parameterNumber":3,"parameterNumberName":"V-component_of_CURRENTS"},"data":[0,0,0,0.0057,0.0058,0.0116,0.0116,0.0204,0.0204,0,0,0,0,0,0,0,0,0,0,0,0.0037,0.0037,0.0057,0.0058,0.0116,0.0116,0.0204,0.0204,0,0,0,0,0,0,0,0,0,0,0,0.0037,0.0037,0.0037,0.0058,0.0116,0.0116,0.0203,0.016,0,0,0,0,0,0,0,0,0,0,0.0103,0.0075,0.0037,0.0037,0.0059,0.0116,0.0116,0.0158,0.0162,0.0177,0,0.0177,0,0.0187,0.0209,0.0209,0,0,0,0.0072,0.0071,0.0087,0.0037,0.0059,0.0115,0.0094,0.016,0.0166,0.0184,0.0178,0.0181,0.0189,0.021,0.021,0.0229,0.0229,0,0,0.0069,0.0051,0.0083,0.009,0.0062,0.0092,0.0095,0.0164,0.0164,0.0178,0.0184,0.019,0.021,0.0211,0.023,0.0229,0,0,0,0.005,0.0049,0.0063,0.0086,0.0092,0.0093,0.0097,0.0161,0.0166,0.0184,0.0191,0.0211,0.0212,0.023,0.0229,0.0142,0,0,0,0.0049,0.0037,0.0061,0.0052,0.0091,0.0125,0.0093,0.0161,0.0169,0.0191,0.0211,0.0212,0.023,0.023,0.0145,0.0092,0,0,0,0.0037,0.0036,0.0039,0.0051,0.007,0.0124,0.0133,0.0164,0.0173,0.021,0.0212,0.0231,0.023,0.0148,0.0097,0.0078,0,0,0,0.0023,0.0003,0.0038,0.0015,0.0069,0.0072,0.0133,0.0144,0.0167,0.0211,0.023,0.0229,0.0149,0.0101,0.0081,0.004,0,0,0,-0.0013,-0.0001,-0.0017,0.0015,-0.0012,0.0065,0.005,0.0109,0.0163,0.0212,0.0213,0.0144,0.0098,0.0079,-0.0006,0,0,0,0,-0.0037,-0.0052,-0.0053,-0.0059,-0.0036,-0.0025,0.0043,0.0077,0.0121,0.0172,0.0152,0.0126,0.0117,0.0102,0.0225,0.0226,0.0226,0.0226,0.0226,-0.01,-0.0098,-0.0138,-0.0134,-0.013,-0.0081,-0.0061,0.0001,0.0066,0.007,0.0061,-0.0008,-0.0026,0.0078,0.0078,0.0077,0.0077,0.0077,0.0076,-0.0173,-0.0199,-0.0207,-0.0245,-0.0227,-0.0226,-0.016,-0.0111,-0.0067,-0.001,-0.0013,0.0018,0.0068,0.007,0.0071,0.0072,0.0073,0.0073,0.0073,-0.0212,-0.0228,-0.0257,-0.0319,-0.0353,-0.0322,-0.0345,-0.0263,-0.0164,-0.0167,-0.0148,-0.0062,-0.0061,-0.0157,-0.0157,-0.0157,-0.0158,-0.0158,-0.0158,-0.0234,-0.0267,-0.0341,-0.0399,-0.045,-0.0485,-0.045,-0.0415,-0.0309,-0.0262,-0.019,-0.0086,-0.0078,-0.0073,-0.0163,-0.0162,-0.0162,-0.0161,-0.0161,-0.0265,-0.0291,-0.0406,-0.0476,-0.0602,-0.0628,-0.0602,-0.0518,-0.0485,-0.0415,-0.0294,-0.0285,-0.0254,-0.0242,-0.0241,-0.0385,-0.0386,-0.0387,0,-0.0281,-0.0304,-0.0472,-0.0606,-0.0718,-0.072,-0.0713,-0.065,-0.0503,-0.0501,-0.0464,-0.0331,-0.0322,-0.0289,-0.028,-0.0282,0,0,0,-0.0302,-0.0359,-0.048,-0.0632,-0.0772,-0.0743,-0.0711,-0.0681,-0.0527,-0.0491,-0.041,-0.0404,-0.0291,-0.0179,-0.0111,-0.0102,-0.009,0,0]}]]